Zurück zum Katalog

FENGYUN 1C DEB

AktivPO
NORAD 31463·DEBRIS·🇨🇳 China

Gestartet May 10, 1999 von Taiyuan Satellite Launch Center

Loading…

Nächste Überflüge (nächste 24 Stunden)

TLE

AktuellSource: Space-Track

Epoche: Sep 13, 2026, 05:18 UTC

1 31463U 99025BVB 26256.22091181  .00000828  00000-0  22887-3 0  9995
2 31463  99.0995 258.7339 0210049 314.8989  43.5310 14.37720656686631

Verfolge FENGYUN 1C DEB in Echtzeit mit AllMySat

Download on the App Store